Wind_Speed
69 70 71 72 73 74 75 76 78 79 80 82 83 84 84 85 86 86 87 88 89 89 89 89 89 89 89 90 91 91 92 93 93 94 94 94 95 95 96 96 96 96 95 94 94 94 93 92 92 91 92 92 92 92 92 93 93 93 93 93 93 94 95 97 99 98 96 94 92 90 88 86 83 81 80 79 79 79 79 78 78 78 78 78 78
72 73 74 75 76 77 78 80 82 83 85 86 87 87 88 88 88 89 89 90 90 90 90 90 90 91 91 91 92 93 94 95 95 96 96 96 96 97 97 98 98 98 98 98 98 97 97 96 95 94 94 94 94 93 94 94 95 95 95 95 95 95 97 98 100 100 99 97 95 93 91 89 87 84 82 81 80 80 80 80 80 80 80 79 79
76 77 78 80 81 82 83 84 85 86 87 88 88 88 89 89 89 89 90 90 90 91 91 91 92 92 92 93 93 94 95 96 97 97 98 98 98 99 99 100 100 100 100 100 100 101 100 100 99 98 99 98 96 96 96 96 96 96 96 97 97 97 97 99 100 101 101 101 99 96 93 91 89 87 85 83 82 81 81 80 81 81 80 79 79
80 81 82 83 84 84 85 85 85 86 87 88 88 89 89 90 90 91 91 91 92 92 93 93 93 94 94 95 96 96 97 97 98 98 99 99 100 100 100 101 101 101 101 102 102 103 103 103 102 103 103 102 101 100 100 99 98 98 97 97 97 97 98 99 100 101 101 102 101 99 97 93 90 89 88 86 84 83 82 81 81 81 80 80 79
82 83 84 85 85 86 86 86 87 88 89 90 91 91 92 93 93 94 94 94 94 94 95 95 95 96 96 97 97 98 98 99 99 99 100 100 101 101 101 102 102 102 102 102 103 103 104 104 104 105 106 106 105 104 104 104 103 102 101 99 98 98 98 98 98 99 101 101 101 100 99 97 93 90 89 88 87 85 84 82 82 82 81 81 80
82 84 85 86 87 87 88 89 90 91 92 93 94 94 95 95 96 96 96 96 96 96 96 96 96 96 97 97 97 98 98 99 99 100 100 101 101 101 102 103 103 103 103 103 103 104 105 105 105 106 107 108 108 108 108 108 107 106 105 104 103 102 101 100 99 99 99 100 100 100 100 99 97 93 90 89 88 87 86 84 83 83 82 82 81
83 85 86 88 89 89 90 91 92 93 93 94 94 95 95 95 96 96 96 96 96 96 96 96 96 96 96 96 96 97 97 98 98 99 100 100 101 101 101 102 102 103 103 104 104 105 105 106 106 107 108 109 109 109 110 110 111 110 109 108 107 107 106 105 103 102 101 100 100 100 100 99 99 97 94 92 90 88 87 86 85 83 82 82 81
84 86 88 89 89 90 91 91 92 93 93 93 94 94 94 94 94 94 94 94 94 93 93 93 92 92 91 91 91 91 92 93 94 95 96 96 97 98 98 99 100 100 101 101 102 103 104 105 106 107 108 109 110 110 111 112 113 113 112 112 111 111 111 110 108 107 106 104 101 101 100 100 99 99 98 97 95 91 90 89 87 84 82 82 82
85 87 88 89 90 90 91 91 91 92 92 92 92 92 92 91 90 89 89 88 87 87 86 86 85 84 83 82 82 82 83 84 85 87 88 89 90 91 92 93 94 95 95 96 96 96 98 100 101 103 105 107 109 110 111 113 114 115 114 114 114 114 114 113 113 112 111 109 107 104 103 102 100 99 99 99 99 97 96 95 92 87 85 84 83
86 87 88 89 89 89 90 90 90 90 90 89 89 88 86 84 83 81 80 79 78 77 77 76 75 75 74 73 73 74 75 76 77 79 81 82 83 84 85 85 86 87 88 89 89 90 90 92 94 96 98 100 103 106 108 111 113 115 116 116 116 117 116 116 115 115 115 114 113 110 108 106 103 101 100 99 99 101 102 101 97 93 91 88 83
86 87 87 88 88 88 87 87 87 86 85 84 82 80 78 76 74 72 71 70 69 68 68 67 67 68 68 68 69 70 71 73 74 75 76 78 79 80 81 81 81 81 82 83 84 85 85 86 87 88 90 92 95 99 102 105 108 111 114 116 117 118 118 118 117 117 117 117 116 115 114 111 108 105 103 101 100 101 103 104 103 100 97 94 88
86 86 86 86 85 84 83 82 80 79 78 76 73 71 69 68 67 66 65 64 63 63 63 64 65 66 67 68 69 70 71 72 74 74 75 76 77 79 79 78 78 78 78 79 80 81 82 82 83 84 85 87 90 92 95 98 101 104 107 110 113 115 117 118 118 118 118 118 118 118 117 115 113 110 107 105 103 102 102 103 105 103 100 98 94
85 85 84 82 81 79 77 75 73 72 70 68 66 65 64 64 63 62 62 62 62 62 63 65 67 68 69 70 70 71 71 72 73 73 74 74 75 76 76 75 75 75 75 75 76 77 77 78 79 80 82 84 86 87 89 90 92 94 97 100 103 106 109 112 114 115 116 117 119 119 118 117 116 114 112 111 109 106 105 104 104 104 103 99 96
82 81 78 76 74 72 70 69 67 65 64 63 62 62 62 62 61 61 61 62 63 64 66 67 69 70 70 70 70 70 70 70 71 71 72 72 73 73 73 73 73 73 73 73 73 74 75 76 77 77 78 80 81 82 83 84 84 86 87 89 92 95 98 102 105 107 110 112 114 116 116 116 116 116 115 114 113 112 110 107 106 107 105 102 98
77 74 72 69 68 66 65 64 62 61 61 60 60 60 61 61 61 62 63 64 65 67 68 69 70 70 71 71 70 69 69 69 70 70 71 71 72 72 73 73 73 72 72 72 72 73 74 74 74 74 75 76 76 77 78 79 80 80 81 82 84 86 88 91 94 97 100 103 106 108 110 111 113 115 115 115 115 115 114 112 111 110 110 107 103
69 67 65 64 63 62 61 60 60 59 59 59 59 60 60 61 62 63 64 66 67 68 69 70 71 71 71 70 69 68 68 69 70 70 71 71 72 73 73 73 72 71 70 70 71 72 72 72 72 72 72 72 72 73 74 75 75 75 76 77 79 80 82 83 86 90 93 95 97 100 102 104 106 109 112 113 114 115 116 115 114 113 113 111 107
64 62 61 60 59 59 59 59 59 59 59 60 60 61 62 63 64 66 66 67 68 70 71 71 71 70 70 69 68 67 66 68 70 70 70 71 72 72 71 70 69 67 67 67 68 69 68 68 68 67 66 66 65 66 66 67 67 68 69 70 71 73 75 78 82 85 88 90 92 93 95 98 100 102 105 108 111 113 114 115 115 115 115 114 112
60 59 58 58 58 58 59 59 59 60 61 61 62 63 64 65 66 67 68 69 70 71 71 71 70 69 68 68 67 67 66 67 69 69 69 69 70 69 68 66 64 62 63 63 64 64 63 62 62 61 59 58 57 57 57 58 58 59 60 61 62 64 66 70 74 77 81 85 88 90 92 93 94 96 99 102 105 109 111 113 114 115 115 116 115
57 57 57 58 58 59 60 60 61 61 62 63 64 65 66 67 68 69 70 70 71 71 71 70 68 68 67 67 67 67 66 66 67 66 66 66 66 65 63 60 58 57 59 60 60 60 59 57 56 55 53 52 52 52 53 54 55 56 57 59 59 61 63 66 68 70 73 77 81 85 89 91 92 93 94 96 99 103 107 110 111 112 114 115 116
56 57 57 58 59 60 60 61 62 63 63 64 65 66 67 68 69 70 71 71 71 70 69 68 67 67 67 67 67 67 66 65 64 63 63 62 62 60 57 54 53 54 55 56 56 57 56 53 52 51 50 50 50 51 52 54 56 57 58 59 60 61 64 67 69 70 72 74 76 79 82 86 89 92 92 93 94 97 102 106 108 109 111 113 114
56 57 58 59 60 61 61 62 63 64 65 65 66 67 68 69 70 70 70 70 69 68 67 67 67 66 66 66 65 65 64 62 61 60 59 58 57 55 52 51 51 51 52 52 51 51 51 50 49 49 50 50 51 52 53 55 58 59 59 60 60 61 64 66 68 71 74 76 77 78 79 81 84 88 90 92 92 93 96 100 104 106 108 109 111
57 58 59 60 61 62 62 63 64 65 65 66 67 67 69 69 70 69 69 68 68 67 67 67 67 66 65 64 63 62 61 60 58 57 55 54 53 53 51 50 50 50 49 48 46 46 47 47 48 49 51 51 52 54 55 57 59 60 61 62 62 63 65 66 67 70 73 76 79 81 81 82 82 83 85 88 90 91 93 95 98 101 104 106 107
57 58 59 60 61 62 63 64 64 65 66 67 67 68 68 68 68 67 67 67 67 67 67 67 66 65 63 62 61 60 58 57 56 53 52 51 51 52 51 50 49 49 48 46 45 44 44 45 48 50 51 53 54 56 58 60 61 62 62 63 64 66 68 69 69 70 72 74 78 81 83 84 84 84 83 83 84 87 90 92 94 97 100 102 104
58 59 60 61 62 63 63 64 65 66 67 67 67 67 67 67 66 67 67 67 67 67 66 66 65 64 62 60 58 57 55 53 51 49 49 49 50 50 50 49 49 49 48 47 47 46 45 44 46 49 51 53 55 58 60 61 62 62 63 64 65 67 69 71 72 73 73 74 76 79 81 82 84 84 84 82 81 82 85 88 91 93 96 99 101
58 59 60 61 62 63 64 65 66 66 67 67 66 66 66 66 66 66 67 67 67 66 66 65 65 63 61 59 55 53 52 49 46 46 47 48 48 49 49 49 49 50 49 48 48 48 48 47 46 47 49 51 53 55 57 59 60 61 62 64 66 68 70 72 74 75 75 74 75 75 76 78 80 81 82 83 83 80 80 82 86 89 92 95 97
58 59 60 61 62 63 64 65 65 66 66 66 65 65 65 65 65 65 66 66 66 65 65 64 63 62 60 56 52 50 47 44 43 44 46 46 47 48 49 49 50 50 50 49 49 49 49 48 48 48 49 50 51 52 54 56 57 59 61 63 66 69 72 74 76 77 75 72 72 72 71 72 75 77 78 80 82 81 78 77 80 83 87 91 95
58 59 60 61 62 63 64 64 64 64 64 65 64 64 64 64 64 64 64 65 64 64 64 62 61 60 57 53 50 47 43 41 42 43 45 46 47 47 48 48 49 49 48 48 48 48 48 48 48 49 50 51 52 53 53 55 56 58 59 62 65 69 72 75 77 76 72 68 67 67 67 67 69 72 73 75 77 79 78 76 75 77 81 85 91
58 59 60 61 62 63 63 63 63 63 63 63 63 62 62 62 62 62 63 63 63 62 61 60 59 58 55 52 48 44 39 39 41 43 44 45 46 46 47 48 48 47 47 47 46 45 45 46 46 47 48 49 50 52 53 53 54 55 57 60 64 68 71 73 73 72 69 65 62 61 62 64 65 67 68 69 71 73 76 76 74 72 74 78 85
58 59 60 61 61 62 62 62 62 62 62 61 61 61 61 61 60 60 60 61 61 60 60 59 58 56 53 49 44 39 37 38 41 43 44 45 45 46 46 47 48 47 47 47 46 45 45 46 47 47 48 48 49 50 51 51 52 54 57 60 64 67 70 70 68 65 63 61 59 58 57 58 60 63 64 65 65 67 71 74 73 70 70 73 78
57 58 59 60 61 61 61 61 60 60 60 59 59 59 58 59 59 59 58 58 59 59 59 58 57 55 51 44 39 36 37 38 40 42 43 43 44 46 47 47 48 48 47 47 47 47 48 48 49 50 50 51 51 51 51 51 52 54 57 60 64 67 68 66 63 60 58 56 54 53 53 53 55 58 60 61 61 62 66 70 70 68 67 69 72
57 58 59 60 60 60 60 59 59 59 58 58 57 56 56 55 56 57 57 57 57 57 57 56 55 53 47 39 35 35 36 38 39 41 42 43 45 45 46 46 47 48 48 48 48 49 50 51 51 52 52 52 51 50 50 51 52 54 57 60 63 65 64 61 58 56 54 51 49 48 49 49 50 52 55 56 56 58 61 65 66 65 64 64 66
57 58 59 59 59 59 59 58 58 58 57 57 56 55 55 54 53 54 56 57 56 55 54 53 52 49 43 37 34 34 36 38 39 41 42 43 44 44 44 45 46 47 48 49 49 50 52 52 53 53 53 52 50 48 48 49 51 54 57 60 62 62 59 55 53 51 49 47 45 45 45 45 45 46 49 50 51 53 57 60 62 62 61 61 61
57 57 57 58 58 58 58 58 58 57 57 56 56 55 55 55 54 54 55 56 57 57 54 52 50 45 38 35 35 35 37 38 39 40 41 42 42 42 43 44 47 48 48 49 49 51 52 53 53 53 52 50 47 45 45 47 50 54 57 59 59 57 53 49 47 47 45 43 41 41 41 40 40 41 42 44 46 49 52 55 57 59 60 60 59
57 56 56 57 57 57 57 57 57 57 57 56 56 56 57 57 57 57 56 55 55 55 53 52 49 43 36 34 35 36 37 38 39 40 40 40 40 40 41 44 46 48 49 49 50 51 52 52 52 51 48 45 43 42 43 46 50 53 55 56 55 51 47 45 44 42 41 39 38 37 36 36 36 36 38 40 42 46 49 51 53 55 58 59 59
55 54 55 56 56 56 57 57 57 57 57 57 57 58 59 59 60 60 58 56 53 50 46 46 46 43 38 35 36 37 37 38 39 39 39 39 38 39 41 43 45 48 49 50 51 51 52 52 50 48 45 41 40 41 42 45 49 51 52 51 49 46 43 42 41 40 38 36 34 33 33 33 33 35 36 39 41 44 47 49 51 52 55 57 59
53 53 54 55 56 57 58 58 58 58 57 57 58 59 60 61 61 60 57 55 51 46 41 39 38 38 37 36 36 37 38 38 38 38 38 38 38 39 40 42 44 46 48 49 50 50 51 50 47 44 40 38 38 39 41 44 46 48 49 48 45 42 40 40 39 37 35 33 31 30 30 31 32 34 36 37 39 42 45 47 49 51 52 55 58
52 53 54 55 56 57 58 59 59 59 58 58 59 60 61 61 60 57 55 52 47 42 39 35 32 33 35 36 35 36 37 38 38 37 37 37 38 40 41 42 43 45 46 48 48 48 48 47 44 40 37 36 37 38 39 42 44 45 46 44 42 40 39 37 36 34 33 30 29 28 28 29 30 32 33 34 36 38 41 43 46 48 50 52 55
52 54 55 56 57 58 59 60 60 59 59 60 60 61 61 60 57 54 53 49 43 38 35 32 29 30 32 33 34 34 35 36 37 37 38 38 39 41 41 42 42 43 45 46 46 46 45 43 40 37 35 35 35 36 37 40 42 43 43 41 39 38 38 35 33 31 30 28 27 27 27 28 29 29 30 31 32 34 37 39 41 43 45 47 49
54 55 56 57 58 59 60 61 60 60 60 61 61 61 60 57 54 52 50 44 38 34 31 29 28 30 31 31 32 33 33 34 35 37 38 39 40 41 42 42 42 43 43 44 44 44 43 40 37 34 33 33 33 34 36 38 40 41 40 38 36 36 36 34 32 29 28 27 25 24 25 26 27 28 29 29 31 32 34 35 37 38 39 41 43
55 56 58 58 59 60 60 60 60 60 60 61 61 60 57 53 51 49 44 37 32 29 27 27 28 29 29 30 31 32 32 32 33 35 38 39 41 41 42 42 43 43 43 43 42 41 40 38 35 32 31 31 31 33 34 36 38 39 38 36 34 33 33 32 30 28 27 25 23 21 20 22 25 28 29 30 31 33 33 34 35 36 37 38 40
56 57 58 59 60 60 60 60 60 60 60 60 59 56 53 51 48 43 36 30 27 26 25 26 27 28 28 29 30 31 31 31 33 35 37 39 41 42 42 43 43 43 42 41 40 39 38 36 33 31 30 30 31 32 33 35 36 37 35 34 33 32 31 30 29 27 26 25 23 20 18 18 21 25 29 30 31 32 32 33 33 34 34 36 37
57 58 59 60 60 59 59 59 59 59 59 58 55 52 49 47 42 35 29 26 24 23 24 26 26 26 27 29 30 30 30 31 33 34 36 38 40 42 43 43 43 43 42 40 39 37 36 34 32 30 29 29 30 31 32 32 34 34 34 33 33 32 30 29 28 26 25 25 24 22 20 18 18 21 24 28 30 32 32 32 32 33 34 35 36
58 58 59 59 59 58 58 58 58 58 58 55 51 48 46 41 34 28 24 22 22 23 24 25 25 26 27 28 29 29 30 31 33 35 36 38 39 41 43 43 43 43 41 39 37 36 35 33 31 30 29 29 30 30 30 30 31 32 32 33 33 31 29 27 26 25 24 24 24 24 23 22 21 21 22 25 28 30 32 33 34 34 35 36 37
58 58 58 58 57 58 58 57 57 56 54 50 47 45 41 34 28 23 21 21 21 22 23 23 24 25 26 27 28 29 30 31 33 35 36 37 39 40 41 42 42 42 40 38 37 36 35 33 31 29 28 28 28 29 28 28 29 30 30 32 32 31 27 25 24 24 23 23 23 24 25 25 25 25 25 26 27 29 31 33 34 35 36 37 37
58 57 57 56 56 57 57 56 55 53 50 46 43 40 35 28 23 20 20 20 21 22 22 22 23 25 26 27 27 29 30 31 33 34 36 37 38 39 40 40 40 40 39 37 36 36 35 33 30 28 27 27 27 28 28 28 28 29 29 30 30 29 26 23 22 21 22 22 22 22 24 25 27 28 28 29 30 31 32 33 34 35 36 37 37
57 56 56 55 56 56 55 54 52 49 45 42 40 34 28 23 20 19 19 20 21 21 21 22 23 24 25 26 27 28 30 31 32 34 35 37 37 38 38 38 38 38 37 36 35 36 36 34 30 27 26 26 27 27 27 27 27 27 28 29 29 27 24 23 21 19 19 20 21 22 22 23 25 27 29 30 31 32 33 34 34 35 36 36 37
56 55 55 54 54 54 53 51 48 44 41 39 34 27 22 20 19 19 19 20 20 20 21 22 23 24 25 26 27 28 29 31 32 34 35 36 36 36 36 36 36 36 35 35 35 35 36 35 32 28 27 26 26 26 26 26 26 26 27 28 27 25 23 22 20 17 16 17 18 19 20 20 21 23 25 27 29 30 31 31 32 33 34 34 35
54 53 53 53 52 52 50 47 43 40 38 33 27 22 20 19 19 19 19 19 20 20 20 21 22 24 25 26 27 28 29 30 32 33 34 35 35 35 34 34 34 34 33 33 33 34 35 35 33 30 28 27 26 25 25 24 24 24 25 26 26 24 23 21 18 15 15 17 18 18 18 18 18 18 18 19 21 23 24 24 25 26 27 29 30
53 52 52 51 51 49 46 42 39 36 33 27 22 20 19 19 19 19 19 19 19 20 20 21 22 23 25 26 27 28 29 30 32 33 34 34 34 33 32 32 32 32 32 31 31 32 33 34 33 31 29 27 25 24 24 23 23 23 24 24 24 24 23 20 16 14 16 19 19 18 18 17 16 16 15 16 17 18 19 20 20 21 22 24 25
54 53 51 50 48 44 40 37 35 32 27 23 21 20 19 19 19 19 19 19 19 19 20 21 22 23 25 26 27 28 29 30 31 33 33 34 33 32 31 31 30 30 30 30 29 29 31 32 32 32 30 28 26 25 23 23 23 23 23 23 23 23 22 20 16 13 15 18 19 18 17 16 15 15 16 16 17 17 18 19 19 20 21 22 23
53 50 48 45 42 38 36 34 31 27 23 21 20 19 19 19 19 19 19 18 19 19 20 21 22 23 25 26 27 28 29 30 31 32 32 32 32 31 30 29 29 29 29 29 28 28 28 29 30 30 30 28 27 25 23 23 23 22 22 22 22 21 21 20 17 15 15 16 17 17 17 16 15 15 16 16 15 15 16 18 19 19 20 20 21
Wind_Direction
272 272 272 273 273 274 274 275 275 275 276 277 277 278 278 279 278 278 278 278 278 277 277 277 276 275 275 274 274 274 274 274 274 274 273 273 273 273 272 272 272 272 272 272 272 271 271 270 270 269 269 268 267 267 266 266 266 266 266 266 266 266 265 264 262 259 259 261 262 261 261 261 261 261 260 259 259 259 259 259 259 260 260 260 260
277 277 277 277 278 278 278 278 278 279 279 280 280 280 280 280 280 280 279 279 279 279 279 278 278 277 277 276 275 275 275 274 274 274 273 273 273 273 272 272 272 272 272 272 272 271 271 270 270 269 269 269 268 268 267 266 266 265 265 265 265 265 265 265 263 261 259 260 262 262 261 261 261 260 260 260 259 259 258 258 259 259 259 259 260
280 280 280 280 280 280 280 280 280 280 281 281 281 281 281 281 281 281 280 280 280 280 279 279 278 278 277 277 276 276 275 275 274 274 273 273 272 272 272 272 271 271 271 271 271 271 271 270 270 270 269 269 268 268 267 267 266 266 265 265 265 264 264 264 264 262 260 259 261 262 262 261 261 260 260 260 260 260 259 259 259 259 259 260 260
281 281 281 281 281 281 281 282 282 282 282 282 283 283 283 283 283 282 282 282 282 281 281 280 279 279 278 278 277 277 276 276 275 274 274 273 273 272 272 271 271 270 270 270 270 270 270 270 270 270 269 269 268 268 268 267 267 266 266 265 265 264 264 263 263 262 261 259 259 261 261 261 260 260 260 260 260 260 260 260 259 259 259 260 260
283 283 283 283 283 284 284 284 285 285 285 285 285 285 285 284 284 284 283 283 283 282 282 281 281 280 279 279 278 278 277 277 276 276 275 274 273 273 272 271 271 270 269 269 269 268 268 268 268 268 268 268 268 268 268 268 267 267 266 265 265 264 264 263 262 261 261 260 259 259 260 260 259 259 259 260 260 259 259 260 260 260 260 260 260
285 285 285 286 286 286 286 287 287 286 286 286 286 285 285 285 285 284 284 284 283 283 282 282 281 281 280 280 279 279 278 278 277 277 276 276 275 274 273 273 272 271 270 269 269 268 268 267 267 266 266 267 267 267 267 268 268 267 267 266 265 265 264 263 262 261 261 260 259 258 258 258 258 258 258 259 259 259 259 259 259 260 260 260 260
286 287 287 287 287 287 287 287 287 286 286 285 285 285 285 284 284 284 284 284 284 284 283 283 283 282 282 281 281 280 280 279 279 278 277 277 276 275 274 274 273 272 271 271 270 269 268 267 266 266 265 265 265 265 265 266 266 266 267 266 266 265 265 264 263 262 261 260 259 259 258 257 257 256 256 257 258 258 259 259 259 259 259 260 259
287 287 287 287 287 287 287 286 286 286 285 285 285 285 285 285 285 285 285 285 285 285 285 284 284 284 283 283 282 282 281 281 280 279 279 278 277 276 275 275 274 273 272 271 271 270 269 268 267 266 266 265 264 264 263 263 263 264 264 265 265 265 265 265 264 263 262 260 259 259 259 258 257 255 254 254 255 256 258 258 258 258 258 258 258
287 287 287 287 287 287 287 287 286 286 286 286 286 286 286 286 286 286 286 286 286 286 286 285 285 285 284 284 284 283 283 282 281 281 280 279 279 278 277 276 275 274 273 272 271 270 269 268 268 267 266 266 265 264 263 262 262 262 262 262 263 263 264 264 264 264 263 262 260 259 258 258 257 257 255 254 253 254 255 256 257 257 257 256 256
288 288 288 288 288 288 288 287 287 287 287 287 287 287 287 287 288 287 287 287 287 287 287 287 286 286 285 285 285 285 284 284 283 282 282 281 280 280 279 278 277 276 275 274 273 272 271 270 268 267 266 266 265 264 263 262 262 261 260 260 260 261 261 262 262 263 263 263 262 261 259 258 257 257 257 256 254 253 253 254 255 255 255 255 255
289 289 289 289 289 289 288 288 288 288 288 288 288 289 289 289 289 289 289 288 288 288 288 287 287 287 287 286 286 286 285 285 284 284 283 283 282 281 280 279 279 279 278 277 276 275 274 272 271 269 268 266 265 264 263 262 262 261 261 260 259 259 260 260 260 261 261 262 262 262 261 260 259 258 257 256 255 254 253 253 253 254 254 254 253
289 289 289 289 289 289 289 289 289 289 289 289 290 290 290 289 289 289 289 288 288 288 288 288 288 288 288 288 288 287 286 286 285 285 284 284 283 282 281 281 280 280 279 278 278 277 276 275 273 272 271 269 267 266 264 263 263 262 262 261 260 260 259 259 259 259 259 260 260 260 260 261 260 259 259 257 256 255 254 253 253 254 254 253 252
290 290 289 289 289 289 288 288 288 288 289 289 289 289 289 289 288 288 287 287 288 288 289 289 290 290 290 289 289 288 288 287 286 286 285 284 284 283 283 282 282 281 280 279 278 278 277 276 275 273 273 272 271 270 268 267 265 264 263 263 262 262 261 260 260 259 259 259 259 258 258 258 259 259 259 259 258 255 254 253 253 253 253 253 252
290 289 289 289 288 288 287 287 287 287 287 287 287 287 287 287 287 287 287 288 289 289 290 291 291 291 291 290 289 289 288 288 287 286 286 285 285 285 284 284 283 282 282 281 280 279 278 277 275 274 274 273 273 272 271 270 268 267 265 264 263 263 262 262 261 260 260 259 259 258 257 257 257 256 256 258 258 257 256 254 252 252 252 252 252
289 289 288 288 287 287 286 286 286 286 286 286 286 286 287 287 287 288 288 289 290 290 291 291 291 291 291 291 290 290 289 288 288 287 287 286 286 286 286 285 285 285 284 284 283 281 280 279 278 276 275 274 274 273 272 270 269 268 266 265 264 263 262 262 262 261 260 260 259 258 257 256 256 255 255 255 256 257 257 255 253 251 251 251 251
289 288 288 287 287 286 286 286 286 286 287 287 288 288 288 288 288 289 289 290 291 292 292 292 292 292 292 291 290 290 289 289 288 288 288 288 288 288 287 287 287 287 286 285 283 282 282 281 280 279 277 276 275 274 272 271 270 268 267 266 264 263 263 262 262 261 261 260 259 258 257 256 256 255 255 254 254 254 255 255 254 253 252 251 250
289 289 288 288 288 288 288 288 289 289 289 289 289 289 289 289 289 290 290 291 292 292 293 293 293 292 292 291 290 290 290 290 289 289 290 290 289 288 288 288 288 287 286 285 284 283 283 283 281 280 278 277 276 275 274 273 272 271 269 268 266 265 263 262 261 261 261 261 260 258 257 256 254 254 254 254 253 253 253 253 253 253 253 252 251
290 290 290 290 290 290 290 290 290 290 290 290 290 290 290 290 291 291 292 292 293 293 293 293 293 292 292 291 291 291 291 290 291 291 291 290 289 288 288 288 288 287 286 285 285 285 285 284 282 280 278 277 276 275 275 275 274 274 273 272 270 268 266 264 263 262 261 261 260 260 258 256 254 252 252 252 252 252 252 251 251 252 252 252 251
291 291 291 291 290 290 290 290 290 290 290 290 291 291 291 291 292 292 292 293 293 293 293 293 292 292 292 292 292 292 292 292 292 292 291 289 289 288 288 288 288 287 287 287 288 288 286 283 280 278 276 274 274 274 275 275 276 276 276 275 274 272 270 268 267 265 263 262 260 260 259 257 256 253 251 250 250 251 251 251 250 250 250 250 250
290 290 290 290 290 290 290 290 290 291 291 291 291 291 291 292 292 292 293 293 293 293 293 292 292 292 292 293 293 293 293 293 293 292 291 290 289 288 288 287 287 287 289 290 290 288 285 281 277 274 273 272 272 274 276 277 278 279 279 279 278 275 273 271 269 267 265 263 262 260 259 258 257 255 253 251 249 249 250 250 249 249 249 249 249
289 289 289 289 289 289 290 290 290 290 291 291 291 291 292 292 292 293 293 293 293 293 292 292 292 293 293 294 294 294 294 294 293 292 291 290 288 287 286 287 288 288 289 290 290 287 282 278 274 271 271 272 274 276 278 279 280 281 282 283 282 281 278 275 272 269 267 265 263 261 260 258 257 256 254 253 250 249 249 249 249 248 248 247 247
288 288 288 288 289 289 289 290 290 290 291 291 291 292 292 293 293 293 293 293 293 293 293 293 293 294 294 295 295 295 295 295 294 292 290 287 286 286 286 287 288 289 289 290 291 289 283 277 273 272 272 274 276 277 279 280 281 282 283 284 284 284 283 281 278 275 272 268 265 262 260 258 257 256 255 253 252 250 248 248 249 249 248 247 246
287 288 288 288 289 289 290 290 290 291 291 291 292 292 293 293 293 293 293 293 294 294 294 294 294 295 295 295 296 296 296 295 294 291 288 285 285 286 288 289 290 291 293 293 293 292 287 280 275 274 274 276 277 278 279 280 281 282 283 284 285 286 285 284 282 279 276 272 269 265 262 259 257 255 255 254 253 250 248 247 247 247 248 247 246
287 288 288 289 289 289 290 290 291 291 292 292 293 293 293 294 294 294 294 294 294 295 295 295 295 295 295 295 296 296 296 294 291 288 286 286 288 290 292 294 296 297 297 296 294 292 290 285 280 278 277 277 277 277 278 278 279 280 281 283 285 285 285 285 285 283 280 277 272 268 265 262 258 255 254 253 252 251 249 247 245 245 246 247 247
288 288 288 289 289 290 290 291 291 292 292 293 294 294 295 295 295 295 295 295 295 296 295 296 296 296 296 296 296 296 294 291 286 283 285 289 292 295 297 299 299 299 297 296 295 293 290 288 286 283 281 279 278 277 277 277 278 280 282 283 284 285 286 287 287 286 284 281 276 271 267 263 261 257 253 251 250 250 249 248 245 244 244 245 246
288 288 288 289 289 290 290 291 292 293 294 295 295 296 296 296 296 296 296 296 296 296 296 296 296 296 297 297 297 295 292 286 281 282 286 290 293 295 297 298 299 299 299 298 296 294 292 291 289 288 286 284 283 282 281 280 281 282 283 284 285 287 288 289 289 288 286 282 277 273 268 264 261 258 254 251 248 248 248 248 246 244 242 242 244
289 289 289 289 290 291 291 292 294 295 295 296 297 297 297 297 297 297 296 296 296 296 297 297 297 297 298 298 297 295 289 282 281 283 287 290 292 294 296 297 298 297 297 297 296 295 294 294 292 291 289 288 287 286 285 284 283 283 285 286 287 289 290 291 290 289 286 282 276 272 268 265 261 258 255 252 248 246 246 247 247 245 242 241 241
289 289 289 290 291 292 293 294 295 297 297 298 298 298 298 298 297 297 296 296 297 297 298 298 298 298 299 299 297 291 284 280 282 284 286 289 292 294 296 296 296 295 295 295 295 295 295 295 294 292 291 289 288 287 286 285 285 285 285 287 289 291 292 292 291 289 286 281 276 271 267 265 262 259 256 253 249 245 243 244 246 245 243 241 240
289 289 290 291 292 293 295 296 297 298 299 299 299 299 298 298 297 297 297 297 298 298 298 299 298 298 299 298 294 286 279 279 282 284 287 290 293 296 297 298 297 296 297 297 297 297 296 296 296 295 293 291 289 286 285 284 284 284 286 289 291 293 294 293 291 287 284 281 277 272 268 264 262 260 257 253 249 245 242 242 244 244 244 242 240
290 290 291 292 293 295 296 297 299 299 300 300 299 299 299 298 298 298 298 298 299 299 299 299 299 299 300 297 290 284 281 282 284 287 290 294 297 299 300 300 299 299 299 300 301 300 299 299 299 298 297 296 293 290 287 285 285 286 289 292 294 296 296 294 291 287 283 281 277 274 271 266 262 259 257 254 250 244 241 240 242 243 244 243 242
291 291 292 293 295 296 298 299 300 300 300 300 299 299 298 298 299 300 299 299 299 300 301 300 299 300 299 295 288 286 288 289 290 292 295 297 299 300 300 300 301 301 301 302 302 302 302 301 301 300 299 298 296 292 289 287 288 291 293 295 297 298 297 294 290 287 284 282 278 276 273 268 262 259 257 254 250 244 240 239 240 241 242 243 243
291 292 293 294 296 297 299 300 300 301 301 300 300 299 298 298 298 299 300 300 300 300 300 299 299 299 297 292 287 289 291 293 294 296 297 299 299 300 300 302 303 303 303 304 304 304 303 303 302 302 301 300 296 292 290 291 293 295 297 299 300 300 298 294 291 288 285 282 279 277 274 269 264 259 256 253 249 244 241 239 240 240 241 242 243
292 292 294 295 296 298 299 300 301 301 301 301 300 300 299 298 298 297 298 299 300 300 299 298 297 295 293 290 290 292 294 295 296 298 299 299 300 301 303 304 305 304 304 305 305 305 305 305 304 304 302 299 296 293 292 294 296 299 301 302 302 301 299 296 293 290 286 282 279 277 274 270 264 259 256 253 248 244 241 241 241 241 240 241 242
292 293 293 295 296 297 299 300 301 301 301 301 301 300 300 299 299 298 297 297 297 297 297 296 296 294 290 289 292 295 296 298 299 299 299 300 301 303 305 306 306 306 306 306 306 306 306 306 306 304 301 297 294 293 295 298 301 303 305 305 304 303 301 299 297 293 287 283 280 276 272 268 263 259 255 251 247 244 242 241 242 242 241 240 241
291 292 293 294 295 297 298 299 300 301 301 300 300 301 301 300 300 300 299 297 296 293 289 289 292 293 291 292 295 297 298 299 299 299 300 301 303 306 308 308 308 309 309 309 309 308 307 307 307 305 300 296 294 295 298 302 306 308 308 307 306 305 304 303 301 297 290 284 280 275 270 265 262 258 255 251 247 246 244 243 242 242 241 240 239
291 292 293 293 294 296 297 299 300 301 300 300 301 301 301 301 301 301 299 298 296 291 284 280 283 287 289 292 296 298 299 299 299 300 302 305 307 309 310 310 310 310 310 310 311 310 310 309 307 303 298 295 296 299 303 308 311 312 311 309 308 308 307 305 302 298 292 286 282 276 270 265 261 259 255 252 249 247 245 244 243 242 240 239 238
290 291 292 292 293 295 296 298 300 301 301 301 302 302 302 302 302 301 299 298 295 289 281 276 276 282 289 294 297 300 301 301 301 302 304 307 310 312 313 312 312 311 311 311 312 312 311 310 306 302 297 297 299 303 308 313 315 315 314 312 311 311 310 307 303 298 293 288 285 280 273 266 262 259 256 252 249 248 246 244 243 241 239 238 237
290 290 291 292 293 294 296 298 300 301 301 302 302 302 302 302 302 301 300 298 292 284 277 274 275 281 289 294 298 300 302 303 305 307 309 311 313 314 314 314 313 313 313 313 313 314 313 309 304 300 298 299 301 307 313 317 318 317 316 314 313 314 313 309 304 298 292 289 286 282 275 267 261 257 252 248 246 245 243 241 238 237 236 235 235
289 290 290 291 292 293 295 297 299 300 301 302 302 303 302 302 302 301 299 294 286 278 274 274 278 284 290 294 298 300 302 304 307 310 311 312 313 314 314 315 316 317 318 318 317 316 314 310 304 300 298 300 305 311 317 320 320 320 318 316 315 315 314 311 305 298 292 288 286 284 278 268 257 250 245 240 237 236 236 235 234 233 233 234 235
288 289 290 291 292 293 294 296 298 300 301 302 303 302 302 302 302 301 296 288 280 275 273 277 283 288 292 296 299 301 302 304 307 309 311 313 314 315 316 318 319 321 321 321 320 318 315 309 304 300 299 302 309 315 319 321 322 322 321 319 318 317 315 312 306 297 290 286 282 281 278 268 254 244 239 236 235 234 236 238 238 238 238 240 241
287 289 290 291 292 293 294 296 297 299 301 302 302 302 302 302 301 297 290 281 275 274 276 282 287 291 295 298 300 301 302 305 308 310 312 314 315 317 318 319 321 322 323 323 322 320 315 309 304 301 301 305 312 317 320 322 324 325 325 324 322 319 317 315 309 299 290 283 277 273 269 262 251 242 240 241 241 242 242 244 245 245 246 247 248
286 288 289 290 291 292 294 295 297 299 301 302 301 301 301 301 298 291 282 275 274 276 281 286 290 294 298 301 302 303 305 308 310 312 314 315 316 318 320 320 321 323 324 325 324 321 316 310 305 301 302 307 314 317 319 322 326 327 328 328 325 320 317 316 313 304 293 283 276 269 261 253 246 241 241 244 247 249 250 251 252 252 253 253 253
285 287 288 289 290 292 293 295 297 300 301 301 300 300 300 298 292 283 275 272 275 280 286 290 294 298 301 302 303 305 308 311 313 314 315 316 318 319 320 321 322 323 325 326 326 324 319 312 307 303 303 307 313 316 318 322 327 329 329 329 326 322 317 315 314 309 298 286 276 269 261 253 245 239 238 241 245 249 251 253 254 255 256 256 256
286 286 287 288 290 291 292 294 297 299 300 299 298 299 298 292 283 274 271 273 278 283 288 292 297 301 302 303 305 308 310 312 314 315 316 317 319 320 320 321 322 323 325 327 328 327 323 317 310 307 307 309 313 316 318 322 328 332 331 328 327 324 320 316 314 311 304 292 281 272 264 257 251 245 241 239 241 245 248 251 253 255 256 256 256
286 287 287 288 289 290 292 295 297 298 297 296 297 296 292 283 273 270 272 277 282 286 290 296 300 302 304 305 308 310 312 313 315 316 317 319 320 321 321 321 321 323 325 327 328 329 327 321 314 311 312 314 315 318 320 323 329 332 331 329 328 327 324 321 317 313 307 300 290 279 270 263 257 252 248 245 244 244 246 248 250 252 254 255 256
287 286 286 287 288 290 292 295 296 296 294 294 294 290 281 271 267 270 275 280 284 288 293 299 302 304 306 308 310 311 313 314 316 317 319 320 321 321 321 321 321 322 324 326 327 329 329 326 319 313 312 315 317 318 320 322 327 331 331 331 331 331 329 327 323 317 311 305 298 288 279 272 266 260 256 254 252 251 250 251 252 252 254 255 256
286 286 286 287 289 290 292 294 294 292 292 292 289 279 268 263 266 272 277 282 286 291 297 302 304 305 307 309 311 313 314 316 317 319 320 321 321 321 321 321 322 323 324 325 326 328 330 330 325 317 313 314 315 317 318 321 325 329 331 333 334 335 334 331 327 324 321 317 311 303 294 288 282 274 267 263 260 258 257 256 255 255 255 255 255
286 286 287 287 289 290 292 291 290 289 289 287 277 264 258 262 268 273 278 283 288 295 300 303 305 307 309 311 312 314 316 318 319 321 321 321 322 321 320 321 323 324 324 323 324 325 328 331 330 325 319 315 315 315 317 321 324 327 331 334 337 338 336 332 330 332 334 332 328 323 317 310 302 295 287 279 273 267 262 259 258 259 258 257 255
285 285 286 287 288 289 289 287 286 286 284 275 260 252 257 265 270 274 279 285 291 297 301 304 306 309 310 312 314 316 318 320 321 322 322 322 322 321 320 321 323 324 324 323 322 323 325 329 332 331 328 323 319 317 318 320 323 325 329 333 336 339 337 333 331 334 338 336 333 331 329 323 316 310 304 299 292 282 271 263 263 265 265 261 256
284 284 285 285 286 285 284 283 283 281 272 257 247 251 259 266 270 275 280 286 292 298 301 305 308 310 312 314 316 317 320 322 323 323 323 323 321 320 319 320 322 324 325 324 321 320 322 326 331 334 334 331 327 323 322 322 323 325 326 329 333 336 336 333 329 328 332 336 337 336 332 327 321 314 310 307 301 290 276 266 265 268 268 264 257
283 283 283 283 282 280 279 280 278 269 253 243 245 254 261 266 271 276 281 287 293 298 302 305 309 311 313 315 317 319 321 323 323 323 323 322 321 319 318 319 321 324 325 325 323 320 318 321 326 331 334 334 332 329 327 326 326 326 326 326 328 331 332 331 327 320 319 326 335 339 339 334 327 318 312 310 307 296 279 270 270 273 273 267 258
Height
5646 5644 5642 5641 5640 5638 5636 5635 5634 5632 5630 5628 5627 5626 5624 5623 5622 5620 5618 5617 5616 5614 5614 5612 5610 5609 5606 5604 5602 5600 5598 5596 5594 5593 5592 5591 5590 5589 5588 5588 5588 5589 5589 5590 5590 5588 5590 5591 5592 5590 5588 5588 5590 5590 5590 5590 5588 5589 5588 5588 5590 5589 5588 5588 5590 5600 5606 5606 5606 5610 5612 5612 5616 5620 5620 5622 5623 5623 5624 5627 5628 5629 5632 5634 5635
5636 5634 5632 5631 5629 5628 5626 5624 5623 5621 5619 5617 5616 5614 5612 5612 5610 5608 5606 5604 5604 5602 5600 5599 5598 5596 5594 5592 5590 5588 5586 5584 5581 5580 5580 5579 5578 5577 5576 5576 5576 5576 5576 5576 5576 5575 5576 5578 5578 5578 5574 5574 5576 5576 5576 5576 5575 5576 5576 5576 5576 5578 5576 5576 5578 5584 5591 5592 5592 5596 5598 5599 5604 5608 5608 5609 5612 5611 5613 5616 5618 5618 5620 5622 5625
5625 5624 5622 5620 5618 5617 5616 5614 5612 5610 5608 5605 5604 5602 5600 5599 5597 5596 5594 5592 5590 5589 5588 5586 5584 5582 5580 5579 5577 5574 5572 5570 5568 5567 5566 5566 5566 5564 5564 5563 5563 5564 5564 5564 5564 5562 5562 5563 5564 5562 5560 5560 5563 5563 5562 5561 5560 5560 5562 5562 5562 5564 5564 5562 5564 5569 5576 5578 5578 5581 5585 5586 5590 5594 5594 5596 5599 5600 5602 5606 5606 5607 5610 5612 5614
5614 5612 5610 5608 5606 5606 5604 5603 5600 5598 5596 5594 5592 5590 5588 5586 5584 5582 5581 5579 5577 5575 5573 5572 5570 5568 5566 5564 5562 5560 5558 5556 5554 5552 5552 5550 5550 5550 5550 5549 5549 5550 5550 5550 5550 5548 5548 5548 5550 5548 5544 5544 5548 5548 5546 5546 5546 5546 5547 5548 5548 5550 5550 5548 5550 5556 5560 5564 5567 5568 5570 5573 5578 5580 5581 5583 5586 5587 5590 5593 5594 5596 5598 5600 5602
5602 5600 5598 5596 5594 5594 5592 5590 5588 5586 5583 5580 5578 5576 5574 5572 5570 5568 5566 5564 5562 5560 5558 5556 5554 5553 5552 5549 5547 5544 5542 5540 5538 5538 5536 5534 5534 5535 5534 5534 5534 5534 5535 5536 5535 5534 5533 5534 5534 5532 5530 5529 5531 5532 5530 5528 5530 5530 5531 5534 5533 5533 5534 5534 5537 5541 5544 5548 5554 5556 5556 5559 5564 5567 5568 5570 5572 5575 5578 5580 5582 5584 5586 5588 5590
5592 5589 5586 5584 5583 5582 5580 5578 5576 5572 5570 5568 5566 5563 5560 5558 5556 5554 5552 5550 5548 5546 5543 5541 5539 5538 5536 5534 5532 5529 5526 5524 5523 5522 5520 5518 5518 5518 5518 5518 5518 5518 5519 5520 5519 5518 5518 5518 5518 5518 5515 5514 5516 5516 5514 5512 5512 5513 5514 5516 5517 5516 5518 5520 5522 5525 5528 5533 5539 5542 5544 5546 5550 5554 5556 5556 5558 5562 5565 5568 5570 5572 5574 5576 5578
5581 5578 5576 5573 5572 5570 5568 5566 5564 5560 5558 5555 5552 5550 5548 5546 5543 5540 5537 5535 5532 5530 5528 5526 5524 5522 5520 5518 5516 5513 5511 5508 5507 5505 5503 5502 5502 5502 5501 5501 5502 5502 5502 5502 5502 5502 5501 5500 5501 5501 5499 5498 5499 5500 5500 5497 5496 5496 5496 5498 5499 5498 5500 5504 5507 5508 5512 5518 5524 5528 5531 5533 5536 5540 5544 5544 5544 5550 5554 5554 5557 5560 5562 5564 5566
5571 5568 5564 5562 5560 5559 5556 5554 5551 5548 5544 5542 5540 5538 5535 5532 5530 5526 5524 5521 5518 5516 5514 5512 5510 5507 5504 5502 5500 5498 5496 5494 5491 5488 5487 5486 5484 5484 5484 5484 5484 5484 5484 5485 5484 5484 5483 5482 5482 5482 5482 5481 5482 5482 5482 5481 5480 5480 5482 5482 5481 5481 5482 5486 5490 5492 5496 5502 5508 5514 5516 5518 5522 5526 5530 5530 5532 5539 5541 5538 5542 5547 5549 5550 5554
5560 5557 5554 5552 5550 5548 5544 5541 5538 5534 5531 5529 5526 5524 5522 5519 5516 5514 5511 5508 5506 5502 5500 5498 5496 5494 5492 5489 5486 5484 5482 5480 5477 5474 5472 5470 5469 5468 5468 5468 5467 5466 5467 5468 5468 5466 5465 5464 5464 5465 5464 5463 5464 5464 5463 5463 5462 5463 5467 5468 5464 5464 5466 5469 5472 5474 5478 5482 5490 5498 5500 5502 5508 5512 5514 5516 5520 5525 5525 5522 5528 5534 5535 5536 5540
5550 5546 5543 5540 5538 5535 5532 5528 5524 5520 5518 5516 5514 5511 5509 5506 5504 5502 5499 5496 5494 5491 5488 5486 5484 5482 5480 5478 5476 5472 5470 5468 5464 5462 5458 5456 5454 5454 5454 5453 5452 5451 5450 5450 5450 5450 5448 5448 5448 5448 5447 5446 5445 5444 5443 5444 5444 5444 5448 5450 5450 5448 5450 5453 5456 5458 5460 5462 5470 5477 5481 5486 5494 5498 5498 5502 5506 5507 5508 5508 5514 5519 5519 5521 5528
5538 5535 5532 5529 5526 5522 5518 5514 5511 5508 5505 5503 5501 5500 5497 5494 5492 5490 5488 5486 5483 5480 5478 5476 5473 5471 5470 5468 5466 5462 5460 5457 5454 5451 5448 5444 5442 5440 5440 5440 5440 5438 5436 5434 5434 5434 5433 5432 5432 5431 5430 5428 5426 5426 5425 5426 5426 5427 5428 5432 5434 5434 5434 5438 5440 5443 5444 5445 5450 5457 5460 5466 5478 5483 5483 5486 5490 5490 5492 5494 5496 5502 5504 5507 5516
5527 5524 5520 5517 5514 5510 5506 5502 5499 5496 5494 5492 5490 5488 5486 5484 5482 5480 5478 5476 5474 5472 5469 5466 5464 5462 5460 5458 5456 5453 5450 5447 5444 5440 5438 5434 5430 5428 5428 5428 5428 5426 5424 5422 5420 5420 5418 5418 5417 5416 5414 5412 5410 5409 5410 5410 5412 5412 5412 5414 5416 5418 5420 5420 5424 5427 5428 5428 5432 5438 5444 5448 5458 5464 5465 5468 5471 5472 5474 5478 5480 5486 5489 5492 5500
5516 5512 5510 5506 5502 5498 5496 5492 5490 5487 5485 5484 5482 5480 5478 5476 5474 5472 5470 5468 5466 5464 5460 5458 5456 5453 5450 5448 5446 5444 5440 5437 5434 5430 5427 5424 5420 5417 5416 5416 5414 5414 5412 5410 5408 5407 5405 5403 5403 5402 5400 5396 5394 5394 5395 5396 5398 5398 5398 5400 5400 5402 5404 5404 5406 5409 5411 5412 5413 5419 5428 5433 5436 5444 5448 5447 5448 5452 5456 5462 5466 5468 5471 5476 5486
5504 5501 5498 5495 5492 5489 5486 5484 5482 5480 5478 5476 5474 5472 5470 5468 5465 5462 5461 5460 5458 5455 5452 5449 5446 5443 5440 5438 5436 5434 5430 5426 5423 5420 5416 5413 5410 5406 5406 5404 5402 5401 5400 5398 5396 5394 5392 5390 5389 5389 5386 5384 5382 5381 5380 5381 5382 5383 5384 5385 5386 5387 5388 5388 5390 5391 5392 5394 5394 5398 5410 5416 5416 5424 5432 5428 5426 5430 5438 5444 5450 5452 5454 5460 5470
5493 5490 5488 5485 5482 5480 5478 5476 5474 5472 5470 5468 5466 5464 5462 5460 5457 5454 5452 5450 5448 5446 5442 5440 5436 5434 5430 5428 5426 5424 5420 5416 5413 5410 5406 5403 5400 5396 5394 5392 5391 5390 5388 5386 5384 5381 5379 5377 5376 5375 5374 5372 5370 5368 5366 5366 5366 5368 5370 5370 5372 5372 5374 5374 5375 5374 5373 5374 5374 5379 5390 5397 5400 5405 5412 5412 5410 5412 5418 5422 5427 5432 5437 5443 5452
5483 5480 5478 5476 5474 5471 5469 5468 5466 5464 5462 5460 5458 5456 5453 5451 5448 5446 5444 5442 5438 5435 5432 5429 5426 5424 5420 5417 5415 5414 5411 5406 5402 5399 5396 5392 5389 5386 5384 5382 5380 5379 5378 5374 5371 5369 5366 5364 5363 5362 5360 5359 5357 5354 5352 5352 5353 5355 5356 5357 5358 5360 5362 5363 5360 5356 5354 5356 5358 5363 5370 5380 5384 5386 5392 5394 5394 5396 5399 5400 5404 5411 5418 5426 5435
5474 5472 5469 5466 5464 5462 5460 5458 5457 5455 5453 5451 5449 5446 5444 5442 5439 5436 5434 5432 5428 5425 5422 5419 5416 5412 5410 5407 5404 5404 5402 5396 5392 5389 5386 5381 5378 5375 5372 5371 5370 5368 5366 5363 5360 5358 5356 5354 5351 5350 5348 5346 5345 5343 5341 5340 5342 5342 5342 5344 5346 5348 5350 5348 5343 5341 5342 5342 5345 5349 5354 5360 5366 5368 5370 5374 5376 5378 5378 5379 5386 5394 5398 5404 5414
5465 5462 5460 5458 5456 5454 5452 5450 5448 5446 5444 5442 5440 5438 5435 5432 5429 5426 5424 5422 5419 5416 5412 5410 5406 5403 5400 5397 5394 5393 5392 5388 5382 5379 5376 5370 5366 5364 5362 5361 5360 5358 5355 5352 5350 5348 5346 5344 5340 5338 5338 5336 5335 5333 5332 5330 5331 5332 5332 5333 5335 5336 5336 5333 5330 5330 5332 5330 5332 5334 5336 5342 5346 5348 5352 5354 5358 5360 5358 5361 5372 5378 5378 5382 5394
5457 5454 5452 5450 5448 5446 5444 5442 5440 5438 5436 5434 5430 5428 5426 5422 5420 5417 5414 5412 5408 5406 5402 5400 5398 5394 5390 5388 5385 5382 5381 5378 5373 5368 5365 5360 5356 5354 5352 5352 5350 5348 5346 5344 5342 5338 5336 5334 5331 5329 5328 5328 5326 5325 5324 5322 5322 5322 5322 5322 5324 5325 5322 5319 5318 5320 5320 5319 5320 5320 5321 5324 5327 5330 5334 5338 5341 5342 5340 5344 5356 5359 5358 5364 5378
5450 5448 5445 5443 5440 5438 5436 5434 5431 5429 5426 5424 5422 5419 5416 5413 5410 5408 5404 5402 5398 5396 5393 5390 5388 5386 5382 5379 5376 5372 5370 5368 5364 5358 5354 5350 5346 5344 5344 5342 5341 5340 5338 5336 5334 5330 5328 5325 5323 5321 5320 5320 5318 5317 5316 5314 5312 5312 5312 5312 5313 5313 5310 5307 5308 5308 5306 5308 5308 5306 5307 5310 5310 5312 5317 5321 5325 5327 5326 5328 5336 5340 5342 5349 5359
5443 5440 5438 5435 5432 5430 5428 5426 5423 5420 5418 5416 5413 5410 5406 5404 5401 5398 5395 5392 5389 5386 5384 5380 5378 5376 5373 5370 5366 5363 5360 5357 5354 5349 5345 5342 5338 5336 5335 5334 5332 5331 5330 5328 5324 5322 5319 5317 5316 5314 5312 5312 5310 5309 5308 5306 5303 5302 5301 5300 5300 5300 5296 5294 5296 5294 5294 5294 5294 5294 5295 5296 5296 5298 5300 5303 5308 5313 5314 5314 5318 5323 5326 5332 5340
5436 5433 5430 5428 5424 5422 5420 5417 5414 5412 5409 5406 5404 5401 5397 5394 5392 5388 5385 5382 5380 5376 5374 5371 5369 5367 5364 5360 5357 5354 5350 5346 5343 5340 5336 5334 5330 5328 5327 5326 5324 5322 5322 5320 5316 5313 5311 5309 5308 5306 5304 5304 5302 5301 5300 5297 5294 5292 5291 5290 5288 5286 5283 5282 5283 5282 5280 5279 5278 5279 5282 5282 5283 5284 5284 5287 5292 5298 5300 5300 5304 5308 5310 5315 5322
5428 5425 5422 5420 5416 5414 5412 5409 5406 5403 5400 5398 5395 5392 5388 5386 5382 5378 5375 5372 5370 5367 5364 5361 5358 5357 5356 5352 5348 5346 5342 5338 5334 5330 5328 5326 5324 5320 5319 5318 5316 5314 5312 5310 5308 5305 5303 5301 5300 5298 5297 5296 5294 5292 5290 5288 5285 5283 5281 5278 5277 5276 5272 5270 5270 5268 5266 5264 5263 5263 5266 5267 5268 5270 5271 5274 5277 5280 5283 5286 5289 5292 5294 5298 5304
5420 5418 5414 5412 5408 5406 5403 5400 5397 5394 5392 5388 5386 5383 5380 5376 5374 5370 5366 5362 5360 5358 5354 5351 5349 5347 5346 5344 5341 5337 5333 5330 5326 5322 5320 5318 5316 5314 5312 5310 5308 5305 5303 5301 5299 5296 5294 5293 5291 5290 5289 5288 5286 5284 5281 5279 5276 5274 5272 5269 5267 5264 5260 5258 5256 5252 5250 5250 5248 5247 5249 5250 5251 5254 5256 5259 5261 5264 5266 5270 5274 5278 5280 5282 5287
5412 5409 5406 5403 5400 5398 5395 5392 5389 5386 5383 5380 5377 5374 5370 5368 5364 5360 5356 5352 5350 5348 5346 5342 5340 5338 5336 5335 5333 5330 5325 5322 5318 5316 5313 5312 5310 5308 5306 5303 5300 5297 5294 5292 5290 5288 5286 5284 5283 5282 5280 5278 5276 5274 5272 5270 5266 5264 5262 5259 5256 5252 5248 5245 5242 5238 5236 5235 5232 5231 5232 5234 5234 5236 5239 5242 5244 5248 5252 5255 5259 5264 5267 5270 5272
5404 5401 5398 5395 5392 5390 5387 5384 5380 5378 5374 5370 5368 5364 5361 5358 5355 5352 5348 5344 5341 5338 5336 5333 5330 5328 5326 5326 5324 5321 5318 5314 5312 5309 5307 5306 5304 5302 5300 5297 5294 5290 5287 5284 5282 5279 5278 5276 5274 5272 5270 5268 5266 5264 5262 5260 5257 5254 5252 5248 5244 5240 5236 5232 5227 5224 5222 5220 5217 5216 5217 5218 5217 5218 5222 5224 5228 5234 5239 5242 5244 5249 5254 5257 5258
5396 5392 5389 5386 5384 5381 5378 5376 5372 5369 5366 5362 5359 5356 5352 5349 5346 5342 5338 5335 5332 5330 5327 5324 5322 5319 5318 5317 5314 5312 5310 5307 5304 5302 5301 5300 5298 5296 5294 5291 5288 5284 5281 5278 5274 5272 5270 5268 5266 5264 5262 5259 5257 5254 5252 5250 5248 5244 5241 5238 5234 5230 5224 5219 5214 5210 5207 5206 5204 5202 5203 5203 5202 5204 5207 5210 5214 5220 5226 5228 5230 5235 5240 5244 5245
5387 5384 5381 5378 5376 5372 5370 5367 5364 5361 5358 5354 5350 5347 5344 5340 5337 5334 5330 5326 5324 5322 5318 5316 5314 5310 5310 5308 5306 5304 5303 5300 5298 5296 5295 5294 5292 5289 5287 5284 5280 5278 5274 5271 5268 5267 5265 5262 5259 5256 5254 5251 5248 5246 5243 5240 5238 5235 5232 5228 5224 5218 5213 5207 5202 5196 5193 5191 5190 5190 5191 5190 5190 5192 5194 5196 5200 5208 5212 5214 5217 5223 5228 5230 5232
5379 5376 5373 5370 5368 5365 5362 5358 5356 5353 5350 5346 5343 5339 5336 5332 5328 5326 5322 5318 5315 5313 5310 5308 5306 5304 5302 5300 5298 5296 5296 5294 5292 5290 5288 5286 5284 5282 5279 5276 5272 5268 5265 5262 5260 5259 5256 5254 5251 5248 5246 5243 5240 5238 5234 5232 5230 5226 5223 5218 5214 5208 5202 5196 5190 5186 5182 5180 5178 5179 5180 5180 5180 5181 5182 5184 5190 5196 5200 5202 5206 5212 5215 5216 5220
5371 5368 5365 5362 5360 5356 5354 5351 5348 5345 5342 5338 5336 5332 5328 5324 5320 5318 5316 5312 5308 5304 5302 5300 5298 5295 5294 5292 5290 5289 5288 5287 5285 5283 5281 5278 5276 5274 5271 5267 5264 5260 5257 5254 5252 5250 5246 5244 5242 5239 5236 5234 5232 5229 5226 5223 5220 5218 5214 5208 5202 5196 5190 5184 5179 5175 5172 5170 5169 5169 5169 5170 5170 5170 5171 5174 5179 5184 5188 5191 5195 5200 5204 5206 5210
5362 5360 5356 5354 5351 5348 5346 5343 5340 5337 5334 5330 5328 5326 5322 5318 5314 5309 5306 5305 5302 5298 5294 5292 5290 5288 5286 5286 5284 5283 5281 5280 5278 5276 5274 5272 5268 5266 5264 5260 5256 5252 5250 5247 5244 5242 5238 5236 5233 5230 5227 5224 5222 5219 5216 5214 5210 5206 5203 5198 5192 5186 5179 5174 5169 5165 5162 5162 5160 5160 5160 5160 5161 5162 5162 5165 5169 5173 5177 5181 5185 5190 5194 5196 5200
5354 5352 5348 5346 5343 5340 5338 5335 5332 5329 5326 5323 5320 5318 5316 5314 5310 5305 5300 5296 5294 5291 5288 5286 5283 5281 5280 5278 5278 5277 5275 5274 5272 5270 5267 5265 5262 5260 5256 5252 5249 5246 5242 5240 5237 5234 5230 5227 5224 5221 5218 5215 5212 5210 5206 5204 5200 5196 5192 5188 5182 5176 5169 5164 5160 5156 5154 5153 5152 5152 5152 5152 5152 5154 5154 5157 5160 5164 5168 5172 5176 5181 5185 5188 5192
5346 5344 5341 5338 5336 5333 5330 5328 5324 5322 5318 5316 5313 5310 5307 5305 5304 5302 5297 5292 5288 5284 5280 5278 5276 5276 5275 5273 5272 5271 5269 5267 5266 5264 5261 5259 5256 5254 5250 5246 5242 5238 5236 5233 5230 5226 5222 5219 5216 5212 5209 5206 5203 5200 5198 5195 5192 5188 5182 5177 5172 5166 5160 5156 5152 5149 5146 5146 5144 5144 5144 5144 5145 5146 5148 5150 5153 5156 5160 5164 5168 5172 5176 5180 5184
5338 5336 5334 5331 5328 5326 5323 5320 5318 5314 5312 5308 5305 5302 5300 5296 5294 5292 5291 5288 5285 5280 5276 5271 5268 5268 5269 5268 5266 5265 5263 5261 5259 5257 5255 5253 5250 5247 5244 5240 5235 5231 5228 5226 5223 5219 5216 5212 5208 5204 5201 5198 5195 5193 5191 5188 5183 5179 5174 5168 5162 5157 5152 5148 5144 5142 5140 5138 5138 5138 5138 5138 5138 5140 5142 5144 5146 5149 5153 5157 5161 5164 5168 5172 5177
5331 5328 5326 5324 5322 5319 5316 5313 5310 5307 5304 5301 5298 5295 5292 5289 5286 5283 5280 5279 5278 5276 5273 5268 5264 5262 5262 5262 5261 5259 5257 5255 5253 5251 5249 5247 5244 5242 5238 5234 5230 5226 5221 5218 5214 5211 5208 5204 5200 5196 5193 5190 5188 5186 5184 5180 5176 5170 5165 5160 5154 5150 5145 5141 5138 5136 5134 5132 5132 5132 5132 5132 5133 5134 5136 5138 5140 5143 5146 5150 5153 5156 5160 5164 5168
5323 5321 5319 5316 5314 5312 5309 5306 5303 5300 5297 5294 5291 5288 5284 5280 5278 5274 5272 5270 5268 5266 5266 5264 5262 5258 5258 5257 5256 5254 5252 5250 5248 5246 5243 5240 5238 5236 5233 5230 5226 5221 5216 5212 5208 5204 5200 5196 5193 5190 5186 5184 5182 5180 5177 5173 5168 5163 5158 5152 5148 5143 5139 5135 5132 5130 5128 5128 5126 5126 5126 5126 5128 5128 5130 5132 5134 5137 5140 5142 5145 5148 5152 5154 5158
5316 5314 5312 5309 5307 5304 5302 5298 5296 5292 5290 5286 5284 5280 5276 5273 5270 5266 5264 5262 5260 5258 5257 5257 5257 5255 5253 5252 5250 5248 5246 5244 5242 5240 5237 5234 5232 5229 5226 5224 5220 5216 5211 5206 5202 5198 5193 5189 5186 5183 5180 5178 5176 5174 5171 5166 5162 5156 5152 5146 5142 5138 5134 5130 5127 5125 5124 5123 5122 5121 5121 5122 5122 5124 5125 5127 5129 5131 5133 5136 5138 5141 5144 5146 5148
5308 5306 5304 5302 5300 5297 5294 5292 5288 5285 5282 5279 5276 5272 5269 5265 5262 5259 5256 5254 5252 5251 5250 5250 5251 5250 5250 5248 5246 5244 5242 5238 5236 5233 5231 5228 5226 5224 5220 5218 5214 5210 5206 5201 5196 5192 5188 5184 5180 5178 5176 5174 5172 5168 5165 5161 5156 5150 5146 5141 5137 5132 5129 5126 5123 5121 5120 5120 5118 5118 5117 5118 5118 5119 5120 5122 5124 5126 5128 5130 5132 5135 5138 5140 5142
5301 5299 5296 5294 5292 5290 5287 5284 5281 5278 5275 5272 5268 5265 5262 5258 5254 5252 5249 5247 5246 5245 5245 5246 5246 5245 5244 5242 5241 5239 5237 5234 5232 5228 5226 5224 5221 5218 5215 5212 5208 5204 5200 5195 5190 5186 5182 5178 5175 5172 5170 5168 5166 5163 5160 5156 5150 5146 5141 5136 5132 5129 5125 5122 5119 5118 5116 5116 5115 5114 5114 5114 5114 5116 5117 5119 5120 5122 5124 5126 5128 5130 5133 5136 5138
5294 5292 5289 5287 5285 5282 5280 5277 5274 5271 5268 5264 5260 5257 5254 5251 5248 5245 5242 5241 5240 5240 5240 5241 5240 5240 5238 5237 5236 5234 5232 5230 5228 5224 5221 5218 5216 5212 5210 5206 5202 5198 5194 5189 5184 5180 5176 5172 5170 5168 5166 5164 5162 5158 5154 5150 5146 5141 5136 5132 5128 5125 5122 5118 5116 5114 5113 5112 5112 5111 5111 5112 5112 5114 5114 5116 5118 5120 5122 5123 5125 5127 5129 5132 5134
5286 5284 5282 5279 5277 5274 5272 5270 5267 5264 5260 5257 5254 5250 5247 5244 5242 5239 5237 5236 5236 5236 5236 5236 5236 5234 5233 5232 5230 5229 5227 5224 5222 5220 5216 5213 5210 5206 5203 5200 5196 5192 5188 5184 5180 5176 5172 5168 5166 5163 5161 5159 5156 5153 5150 5146 5142 5137 5132 5128 5124 5122 5118 5116 5113 5111 5110 5109 5108 5108 5108 5108 5109 5111 5113 5114 5116 5117 5118 5120 5122 5123 5125 5127 5129
5278 5276 5274 5271 5269 5267 5265 5262 5260 5257 5254 5250 5246 5244 5241 5238 5236 5234 5233 5232 5232 5233 5232 5232 5231 5230 5228 5226 5225 5224 5222 5219 5217 5214 5212 5208 5204 5200 5197 5194 5190 5186 5183 5179 5175 5171 5168 5164 5162 5159 5157 5155 5152 5149 5146 5142 5138 5134 5129 5126 5122 5118 5116 5113 5110 5108 5107 5106 5106 5106 5105 5104 5105 5106 5109 5111 5112 5114 5115 5116 5117 5118 5120 5122 5124
5269 5267 5265 5263 5261 5260 5257 5255 5252 5250 5246 5243 5240 5238 5235 5233 5231 5230 5230 5230 5230 5230 5228 5228 5226 5225 5224 5222 5220 5218 5216 5214 5212 5210 5207 5204 5200 5196 5192 5188 5185 5182 5178 5175 5171 5167 5164 5160 5158 5155 5153 5151 5148 5146 5142 5138 5135 5131 5126 5123 5120 5116 5113 5110 5108 5106 5104 5104 5103 5104 5103 5102 5102 5102 5104 5105 5107 5108 5110 5111 5112 5114 5115 5116 5118
5260 5258 5257 5255 5254 5252 5250 5248 5246 5242 5240 5237 5234 5232 5230 5228 5227 5226 5226 5226 5226 5226 5225 5224 5222 5221 5220 5218 5216 5214 5212 5210 5208 5205 5202 5200 5196 5192 5188 5184 5180 5177 5174 5171 5168 5164 5160 5156 5154 5151 5149 5147 5145 5142 5138 5135 5132 5128 5124 5120 5117 5114 5110 5108 5106 5104 5102 5102 5100 5100 5100 5100 5100 5100 5100 5100 5102 5102 5104 5106 5107 5108 5110 5110 5112
5252 5250 5249 5248 5246 5244 5242 5240 5238 5236 5233 5231 5228 5227 5225 5224 5224 5224 5224 5223 5223 5222 5221 5220 5218 5217 5216 5214 5212 5210 5208 5206 5204 5201 5198 5195 5192 5188 5184 5181 5177 5174 5170 5168 5164 5160 5157 5154 5150 5148 5146 5144 5141 5138 5135 5132 5128 5125 5122 5118 5115 5112 5108 5106 5104 5102 5101 5100 5098 5098 5098 5097 5097 5097 5097 5097 5098 5098 5099 5100 5102 5102 5104 5105 5106
5244 5242 5241 5240 5238 5236 5235 5234 5232 5229 5227 5225 5224 5222 5221 5220 5220 5220 5220 5220 5220 5218 5217 5216 5214 5214 5212 5210 5208 5206 5204 5202 5200 5197 5194 5190 5188 5184 5180 5177 5174 5170 5167 5164 5160 5158 5154 5151 5148 5145 5142 5140 5138 5135 5132 5128 5126 5122 5119 5116 5112 5110 5106 5104 5102 5100 5099 5098 5097 5096 5096 5094 5094 5094 5094 5094 5094 5094 5096 5096 5097 5098 5099 5100 5100
5236 5234 5233 5232 5230 5229 5228 5226 5224 5222 5221 5220 5218 5218 5218 5218 5218 5218 5217 5216 5216 5214 5214 5212 5210 5210 5208 5206 5204 5202 5200 5198 5195 5192 5190 5186 5184 5180 5177 5174 5170 5167 5164 5160 5158 5154 5152 5148 5145 5142 5140 5137 5134 5132 5129 5126 5122 5120 5117 5114 5110 5108 5105 5103 5101 5099 5098 5096 5096 5094 5094 5093 5092 5092 5091 5091 5092 5092 5092 5092 5093 5094 5094 5095 5096
5227 5226 5225 5224 5223 5222 5220 5219 5218 5216 5216 5214 5214 5214 5214 5214 5214 5214 5214 5213 5212 5210 5210 5208 5207 5206 5204 5202 5200 5198 5196 5194 5191 5188 5186 5182 5180 5176 5174 5170 5168 5164 5161 5158 5155 5152 5149 5146 5142 5140 5136 5134 5132 5129 5126 5124 5120 5118 5115 5112 5109 5106 5104 5102 5100 5098 5097 5096 5095 5094 5092 5092 5090 5090 5089 5089 5088 5088 5089 5089 5090 5090 5090 5091 5092
5219 5218 5218 5216 5216 5214 5214 5212 5212 5211 5210 5210 5210 5210 5210 5210 5210 5210 5210 5209 5208 5207 5206 5204 5204 5202 5200 5198 5196 5194 5192 5190 5187 5184 5182 5178 5176 5172 5170 5168 5164 5162 5158 5156 5152 5150 5147 5144 5141 5138 5134 5132 5129 5126 5124 5121 5118 5116 5113 5110 5108 5106 5103 5101 5100 5098 5097 5096 5094 5092 5092 5090 5089 5088 5088 5088 5087 5086 5086 5086 5087 5088 5088 5088 5088
5211 5210 5210 5208 5208 5208 5206 5206 5206 5206 5206 5206 5206 5207 5207 5207 5207 5206 5206 5205 5204 5203 5202 5201 5200 5198 5196 5194 5192 5190 5188 5186 5182 5180 5177 5174 5172 5169 5166 5164 5162 5158 5156 5153 5150 5148 5145 5142 5140 5136 5133 5130 5127 5124 5122 5119 5116 5114 5112 5109 5107 5104 5102 5100 5099 5098 5096 5096 5094 5092 5090 5090 5088 5088 5087 5086 5086 5085 5085 5085 5086 5086 5086 5086 5086
5202 5202 5202 5201 5201 5200 5200 5200 5200 5200 5201 5202 5203 5204 5204 5204 5204 5203 5202 5202 5200 5200 5198 5198 5196 5194 5193 5191 5189 5186 5184 5182 5179 5176 5174 5171 5168 5166 5164 5161 5158 5156 5153 5150 5148 5146 5143 5140 5138 5135 5132 5129 5126 5123 5120 5118 5114 5112 5110 5108 5106 5104 5102 5100 5098 5097 5096 5095 5094 5092 5090 5089 5088 5087 5086 5085 5084 5084 5084 5084 5084 5084 5084 5084 5084